Home   Weather   Belfast   Past weeks

Flag for United Kingdom Past Weather in Belfast, Northern Ireland, United Kingdom — Yesterday and Last 2 Weeks

54 °F

Scattered showers. Partly cloudy.

Feels Like: 53 °F
Forecast: 49 / 58 °F
Wind: 3 mph from South

Location: Belfast / Harbour

Current Time: Oct 29, 2016 at 12:53:20 AM

Latest Report: Oct 28, 2016 at 9:20 PM

Visibility: N/A

Pressure: 30.51 "Hg

Humidity: 94%

Dew Point: 52 °F

Location of BelfastLocation

Past Weather in Belfast — Graph


Belfast Temperature Yesterday

Maximum temperature yesterday: 59 °F (at 2:20 PM)
Minimum temperature yesterday: 52 °F (at 6:20 AM)
Average temperature yesterday: 55 °F

High & Low Weather Summary for the Past Weeks

High59 °F (Oct 28, 2:20 PM)100% (Oct 20, 6:50 AM)30.51 "Hg (Oct 20, 6:50 AM)
Low37 °F (Oct 25, 6:20 AM)58% (Oct 23, 2:50 PM)29.50 "Hg (Oct 16, 12:50 PM)
Average51 °F82%30.04 "Hg
* Reported Oct 13 9:20 PM — Oct 28 9:20 PM, Belfast, Weather by CustomWeather, © 2016

Note: Actual official high and low records may vary slightly from our data, if they occured in-between our weather recording intervals... More about our weather records


Belfast Weather History for the Previous 24 Hours

Scroll right to see more
Time TempWeatherWind HumidityBarometerVisibility
9:20 PM
Fri, Oct 28
54 °FScattered showers. Partly cloudy.3 mph94%30.51 "HgN/A
8:50 PM54 °FPartly cloudy.6 mph94%30.51 "HgN/A
8:20 PM55 °FPassing clouds.7 mph82%30.51 "HgN/A
7:50 PM55 °FPassing clouds.3 mph82%30.51 "HgN/A
7:20 PM55 °FPassing clouds.5 mph88%30.51 "HgN/A
6:50 PM55 °FPartly cloudy.5 mph82%30.51 "HgN/A
6:20 PM57 °FPartly cloudy.5 mph77%30.48 "HgN/A
5:50 PM57 °FScattered clouds.3 mph72%30.48 "HgN/A
5:20 PM57 °FBroken clouds.5 mph67%30.48 "HgN/A
4:50 PM57 °FBroken clouds.3 mph67%30.48 "HgN/A
4:20 PM57 °FPassing clouds.3 mph67%30.48 "HgN/A
3:50 PM57 °FPassing clouds.5 mph67%30.48 "HgN/A
3:20 PM57 °FPassing clouds.5 mph67%30.48 "HgN/A
2:50 PM57 °FPassing clouds.6 mph67%30.51 "HgN/A
2:20 PM59 °FPassing clouds.7 mph68%30.51 "HgN/A
1:50 PM57 °FPassing clouds.7 mph67%30.51 "HgN/A
1:20 PM57 °FPassing clouds.6 mph72%30.48 "HgN/A
12:50 PM57 °FPassing clouds.3 mph72%30.48 "HgN/A
12:20 PM55 °FPassing clouds.5 mph67%30.48 "HgN/A
11:50 AM55 °FPassing clouds.3 mph72%30.48 "HgN/A
11:20 AM54 °FPassing clouds.2 mph77%30.48 "HgN/A
10:50 AM54 °FPassing clouds.3 mph82%30.45 "HgN/A
10:20 AM52 °FPassing clouds.2 mph88%30.48 "HgN/A
9:50 AM52 °FPassing clouds.5 mph88%30.45 "HgN/A
9:20 AM52 °FPassing clouds.2 mph88%30.45 "HgN/A
8:50 AM52 °FSunny.5 mph88%30.45 "Hg10 mi
8:20 AM52 °FSunny.6 mph88%30.42 "Hg10 mi
7:50 AM52 °FPassing clouds.7 mph88%30.42 "HgN/A
7:20 AM52 °FPassing clouds.6 mph88%30.39 "HgN/A
6:50 AM52 °FPassing clouds.6 mph88%30.39 "HgN/A
6:20 AM52 °FPassing clouds.6 mph82%30.39 "HgN/A
Weather by CustomWeather, © 2016

See weather overviewHow to use our weather pages